Regional Weather Roundup
Issued by NWS

Home | Current Version | Previous Version | Graphics & Text | Print | Product List | Glossary On
Versions: 1 2 3 4 5 6 7 8 9 10 11 12 13 14 15 16 17 18 19 20 21 22 23 24 25 26 27
000
ASUS45 KBOU 311107
RWRCO

WEATHER ROUNDUP FOR COLORADO
NATIONAL WEATHER SERVICE DENVER/BOULDER CO
500 AM MDT FRI OCT 31 2014

NOTE: "FAIR" INDICATES FEW OR NO CLOUDS BELOW 12000 FEET WITH NO
SIGNIFICANT WEATHER AND/OR OBSTRUCTIONS TO VISIBILITY.

COZ001>005-013-030-031-311200-
...NORTHWEST COLORADO...

CITY           SKY/WX    TMP DP  RH WIND       PRES   REMARKS
CRAIG          PTCLDY    25  22  88 CALM      30.25F
HAYDEN         PTCLDY    36  25  64 E13       30.26S
MEEKER         CLEAR     31  25  78 NE3       30.26F
MOUNT WERNER   NOT AVBL
STEAMBOAT SPGS PTCLDY    29  25  85 CALM      30.29S
WALDEN         CLEAR     25  21  86 CALM      30.34R
$$

COZ006>008-011-311200-
...WEST CENTRAL VALLEYS...

CITY           SKY/WX    TMP DP  RH WIND       PRES   REMARKS
GRAND JUNCTION PTCLDY    41  26  55 E9        30.20S
MONTROSE       PTCLDY    34  24  67 SE6       30.27F WCI  29
EAGLE          PTCLDY    28  25  86 CALM      30.37R
RIFLE          CLEAR     33  25  72 E5        30.26S WCI  29
DELTA          PTCLDY    38  25  60 CALM      30.25S
NUCLA          PTCLDY    37  21  52 E7        30.29S
$$

COZ017>023-064>068-311200-
...SOUTHWEST COLORADO...

CITY           SKY/WX    TMP DP  RH WIND       PRES   REMARKS
DURANGO        PTCLDY    35  24  64 N6        30.36S WCI  30
CORTEZ         CLEAR     36  23  59 CALM      30.27F
PAGOSA SPRINGS PTCLDY    32  20  63 CALM      30.41S
TELLURIDE      CLEAR     47  15  27 NE5       30.41S
WOLF CREEK PAS PTCLDY    32  12  43 SW22G28   30.55S WCI  19
$$

COZ009-010-012-014-032>034-037-058>063-311200-
...CENTRAL COLORADO...

CITY           SKY/WX    TMP DP  RH WIND       PRES   REMARKS
ASPEN          CLEAR     28  19  69 S7        30.34R WCI  21
BUENA VISTA    CLEAR     26  19  74 SW3       30.44S
COPPER MTN     CLEAR     45  -8  11 SW10G18   30.51S
BERTHOUD PASS  FAIR      36  32  87 W24G33    30.51F
COTTONWOOD PAS CLEAR     36  19  51 CALM      30.46F
GUNNISON       CLEAR     25  12  58 CALM      30.42R
KREMMLING      PTCLDY    23  19  86 CALM      30.38R
LEADVILLE      CLEAR     24  16  71 S3        30.45S
MONARCH PASS   CLEAR     32  14  47 SW13      30.62F WCI  22
SALIDA         CLEAR     31  21  66 NW5       30.51S WCI  26
SUNLIGHT       CLEAR     41  18  38 CALM      30.46S
WILKERSON PASS NOT AVBL
$$

COZ069>075-311200-
...SAN LUIS VALLEY/SANGRE DE CRISTO MOUNTAINS...

CITY           SKY/WX    TMP DP  RH WIND       PRES   REMARKS
ALAMOSA        PTCLDY    22  14  71 SE5       30.40R WCI  16
LA VETA PASS   PTCLDY    34  21  60 S13G23    30.46F WCI  25
SAGUACHE       PTCLDY    30  16  55 NW7       30.41F WCI  23
$$

COZ035-036-038>040-311200-
...NORTHERN COLORADO FRONT RANGE...

CITY           SKY/WX    TMP DP  RH WIND       PRES   REMARKS
DENVER INTL AP CLEAR     35  25  66 S12       30.33F WCI  27
DMNS CITY PARK   N/A     34  28  77 W3        30.33S
AURORA         CLEAR     40  25  54 SW9       30.34F
FRONT RANGE AP CLEAR     41  28  60 S18G24    30.34F
ERIE MUNI ARPT CLEAR     30  27  88 CALM      30.34S
BOULDER MUN AP CLEAR     37  28  70 CALM      30.34S
CENTENNIAL     CLEAR     40  25  55 S10       30.33F
BROOMFIELD     CLEAR     36  28  75 CALM      30.33S
FORT COLLINS   CLEAR     34  27  75 N9        30.37S WCI  26
LONGMONT       CLEAR     37  29  74 N6        30.36S
$$

COZ041-046-047-076>085-087-088-311200-
...PIKES PEAK/PALMER DIVIDE AND SOUTHERN FOOTHILLS...

CITY           SKY/WX    TMP DP  RH WIND       PRES   REMARKS
COLO. SPRINGS  PTCLDY    35  25  66 SE8       30.42S WCI  29
A. F. ACADEMY  CLEAR     34  23  66 S10       30.40F WCI  26
ELLICOTT       PTCLDY    35  26  69 SE15      30.40F WCI  25
FALCON         PTCLDY    30  24  78 S7        30.42S WCI  23
FORT CARSON    CLEAR     36  24  60 S8        30.41S
LIMON          CLEAR     25  21  85 S3        30.41F
MONUMENT HILL  PTCLDY    32  25  74 S17       30.36F WCI  21
TRINIDAD       CLEAR     30  22  72 NW7       30.40S WCI  23
$$

COZ042>045-048>051-090-091-311200-
...NORTHEAST COLORADO...

CITY           SKY/WX    TMP DP  RH WIND       PRES   REMARKS
GREELEY ARPT   PTCLDY    34  23  64 E13       30.36F WCI  25
AKRON          CLEAR     30  28  92 SE14      30.40F WCI  19
BURLINGTON     PTCLDY    27  24  89 SE6       30.44F WCI  20
WRAY           PTCLDY    30  29  99 CALM      30.46S
STERLING       NOT AVBL
HOLYOKE        PTCLDY    27  25  93 CALM      30.47R FOG
FORT MORGAN    CLEAR     29  27  92 E8        30.40F WCI  21
$$

COZ086-089-092>099-311200-
...SOUTHEAST COLORADO...

CITY           SKY/WX    TMP DP  RH WIND       PRES   REMARKS
PUEBLO         CLEAR     33  24  69 NE5       30.40S WCI  29
LA JUNTA       CLEAR     36  27  69 E8        30.42S
LAMAR          CLEAR     33  26  75 E3        30.43R
SPRINGFIELD      N/A     29  24  82 CALM      30.43S
$$



USA.gov is the U.S. government's official web portal to all federal, state and local government web resources and services.